This is the latest recevied weather packets stored in our database for station/object EA1BQO-1. If no packets are shown the sender has not sent any weather packets the latest 10 day(s).
| Time | Temp. | Humidity | Pressure | Rain* | Wind** | Luminosity | Snow |
|---|---|---|---|---|---|---|---|
| 1777588957 | 12.22° C | 88% | 1015.1 hPa | 0 mm | - | - | - |
| 1777588357 | 12.22° C | 87% | 1015 hPa | 0 mm | - | - | - |
| 1777587757 | 12.78° C | 86% | 1015.1 hPa | 0 mm | - | - | - |
| 1777587157 | 12.78° C | 86% | 1015.1 hPa | 0 mm | - | - | - |
| 1777586557 | 12.78° C | 85% | 1015 hPa | 0 mm | - | - | - |
| 1777585957 | 12.78° C | 84% | 1015 hPa | 0 mm | - | - | - |
| 1777585357 | 13.33° C | 84% | 1015 hPa | 0 mm | - | - | - |
| 1777584757 | 13.33° C | 83% | 1014.8 hPa | 0 mm | - | - | - |
| 1777584157 | 13.33° C | 83% | 1014.8 hPa | 0 mm | - | - | - |
| 1777583557 | 13.33° C | 82% | 1014.5 hPa | 0 mm | - | - | - |
| 1777582957 | 13.89° C | 81% | 1014.6 hPa | 0 mm | - | - | - |
| 1777582357 | 13.89° C | 81% | 1014.4 hPa | 0 mm | - | - | - |
| 1777581757 | 13.89° C | 81% | 1014.3 hPa | 0 mm | - | - | - |
| 1777581157 | 13.89° C | 81% | 1014.1 hPa | 0 mm | - | - | - |
| 1777580557 | 14.44° C | 80% | 1014 hPa | 0 mm | - | - | - |
| 1777579957 | 14.44° C | 79% | 1014 hPa | 0 mm | - | - | - |
| 1777579357 | 15° C | 78% | 1014 hPa | 0 mm | - | - | - |
| 1777578757 | 15° C | 77% | 1013.9 hPa | 0 mm | - | - | - |
| 1777578157 | 15.56° C | 76% | 1013.7 hPa | 0 mm | - | - | - |
| 1777577557 | 15.56° C | 75% | 1013.6 hPa | 0 mm | - | - | - |
| 1777576957 | 15.56° C | 73% | 1013.5 hPa | 0 mm | - | - | - |
| 1777576357 | 16.11° C | 71% | 1013.4 hPa | 0 mm | - | - | - |
| 1777575757 | 16.11° C | 70% | 1013.5 hPa | 0 mm | - | - | - |
| 1777575157 | 16.67° C | 69% | 1013.3 hPa | 0 mm | - | - | - |
| 1777574557 | 16.67° C | 67% | 1013.2 hPa | 0 mm | - | - | - |
* Rain latest hour (hover to see other rain measurements)
** Current wind speed in m/s (hover to see current wind gust speed)